Location: �clusier
(49.9361°N, 2.7869°E)
Time: 07:11:17
(UTC+00:00)

Cosmos 2237 Rocket - Pass Details

Date: 16 June 2021
Orbit: 835 x 850 km, 71.0° (Epoch: 31 July)

Event Time Altitude Azimuth Distance (km) Brightness Sun altitude
Exits shadow 23:23:28 25° 191° (S) 1,622 3.1 -16.5°
Maximum altitude 23:26:45 68° 115° (ESE) 898 2.2 -16.5°
Drops below altitude 10° 23:32:21 10° 33° (NNE) 2,457 5.4 -16.6°
Sets 23:34:48 0° 31° (NNE) 3,396 6.3 -16.6°
